Tracking 19247 objects as of 24-Sep-2018
HD Live streaming from Space Station
objects crossing your sky now

FENGYUN 1C DEB

Track FENGYUN 1C DEB now!
10-day predictions


NORAD ID: 32425
Int'l Code: 1999-025DAM
Perigee: 683.9 km
Apogee: 1,040.2 km
Inclination: 96.7 °
Period: 102.0 minutes
Semi major axis: 7233 km
RCS: 0.003 m2 (small)
Launch date: May 10, 1999
Source: People's Republic of China (PRC)
Launch site: Taiyaun Space Center, China (TSC)

Note: This is SATELLITE DEBRIS
aabbcc
Your satellite tracking list
Your tracking list is empty




NASA's NSSDC Master Catalog

Two Line Element Set (TLE):
1 32425U 99025DAM 18261.36654347  .00000149  00000-0  74847-4 0  9995
2 32425  96.7122 310.0917 0246303 302.7326  55.0324 14.11294616559392
Source of the keplerian elements: AFSPC